Regional Weather Roundup
Issued by NWS

Home | Current Version | Previous Version | Text Only | Print | Product List | Glossary On
Versions: 1 2 3 4 5 6 7 8 9 10 11 12 13 14 15 16 17 18 19 20 21 22 23 24 25 26 27 28 29 30 31 32 33 34 35 36 37 38 39 40 41 42 43 44 45 46 47 48 49 50
000
ASUS44 KOUN 201710
RWROK

WEATHER ROUNDUP FOR OKLAHOMA
NATIONAL WEATHER SERVICE NORMAN OK
1200 PM CDT WED AUG 20 2014

NOTE: "FAIR" INDICATES FEW OR NO CLOUDS BELOW 12,000 FEET WITH NO
      SIGNIFICANT WEATHER AND/OR OBSTRUCTIONS TO VISIBILITY.

OKZ001>007-009>012-014-015-017-201800-
NORTHWEST OKLAHOMA AND THE PANHANDLE

CITY           SKY/WX    TMP DP  RH WIND       PRES   REMARKS
GAGE           SUNNY     91  65  41 S22       29.88S HX  93
ENID/WOODRING  SUNNY     91  70  49 S21G30    29.87F HX  97
$$

OKZ016-021>023-033>039-044-045-201800-
SOUTHWEST OKLAHOMA

CITY           SKY/WX    TMP DP  RH WIND       PRES   REMARKS
LAWTON/REGL    SUNNY     94  59  31 S15G23    29.92F HX  93
LAWTON/FT SILL SUNNY     93  61  34 SW17G23   29.91F HX  93
FREDERICK      SUNNY     94  65  38 SW17G28   29.89S HX  96
CLINTON        SUNNY     91  65  41 S21G31    29.93S HX  93
HOBART         SUNNY     92  67  43 S22       29.92S HX  95
ALTUS AFB      SUNNY     91  68  46 S17G26    29.90F HX  95
$$

OKZ018>020-024>031-201800-
CENTRAL OKLAHOMA

CITY           SKY/WX    TMP DP  RH WIND       PRES   REMARKS
OKLAHOMA CITY  SUNNY     90  63  40 S18G28    29.93S HX  91
OKC/WILEY POST SUNNY     91  65  41 S18G29    29.93S HX  93
OKC/TINKER AFB SUNNY     88  64  44 S22G30    29.94S
STILLWATER     SUNNY     91  69  48 S14G25    29.91S HX  96
GUTHRIE        SUNNY     90  69  50 S14G22    29.92R HX  94
$$

OKZ008-013-054>072-201800-
NORTHEAST OKLAHOMA

CITY           SKY/WX    TMP DP  RH WIND       PRES   REMARKS
TULSA          PTSUNNY   86  68  54 S15G24    29.93R
TULSA/JONES    MOSUNNY   88  69  53 S16G24    29.95R HX  92
PONCA CITY     SUNNY     89  71  55 S12G17    29.90R HX  95
BARTLESVILLE   PTSUNNY   90  71  53 SW12G20   29.93S HX  96
MUSKOGEE       PTSUNNY   85  71  63 S13G22    30.00R HX  90
$$

OKZ032-040>043-046>053-073>077-201800-
SOUTH CENTRAL/SOUTHEAST OKLAHOMA

CITY           SKY/WX    TMP DP  RH WIND       PRES   REMARKS
ARDMORE/DWNTWN PTSUNNY   84  68  58 S9        29.97S
MCALESTER      MOSUNNY   81  72  74 S6        30.01R
$$




USA.gov is the U.S. government's official web portal to all federal, state and local government web resources and services.